Weather History for KSDB - June, 2013

Change the Weather History Date:

Sunday, June 23, 2013

  Actual Average Record
Temperature  
Mean Temperature 69 °F 69 °F  
Max Temperature 79 °F 79 °F 96 °F (1961)
Min Temperature 58 °F 59 °F 42 °F (1963)
Degree Days  
Heating Degree Days 0 2  
Month to date heating degree days 12 76  
Since 1 June heating degree days 12 76  
Since 1 July heating degree days 3066 4104  
Cooling Degree Days 4 5  
Month to date cooling degree days 150 87  
Year to date cooling degree days 280 132  
Since 1 June cooling degree days 150 87  
Growing Degree Days 20 (Base 50)    
Moisture  
Dew Point 37 °F    
Average Humidity 55    
Maximum Humidity 89    
Minimum Humidity 20    
Precipitation  
Precipitation 0.00 in 0.00 in T in (1945)
Month to date precipitation 0.00 0.06  
Year to date precipitation 2.91 8.48  
Since 1 July precipitation 4.28  
Sea Level Pressure  
Sea Level Pressure 29.79 in    
Wind  
Wind Speed 16 mph (NNW)    
Max Wind Speed 28 mph    
Max Gust Speed 36 mph    
Visibility 10 miles    
Events      
T = Trace of Precipitation, MM = Missing Value Source: NWS Daily Summary

Daily Weather History Graph

Daily Weather History Graph

Search for Another Location

Airport or City:

Trip Planner

Search our weather history database for the weather conditions in past years. The results will help you decide how hot, cold, wet, or windy it might be!

Date:

Astronomy

Jun. 23, 2013 Rise Set
Actual Time 5:42 AM PDT 8:11 PM PDT
Civil Twilight 5:13 AM PDT 8:41 PM PDT
Nautical Twilight 4:36 AM PDT 9:17 PM PDT
Astronomical Twilight 3:56 AM PDT 9:58 PM PDT
Moon 8:32 PM PDT (6/23) 6:02 AM PDT (6/23)
Length of Visible Light 15h 28m
Length of Day
14h 29m
Full, 100% of the Moon is Illuminated
Jun 23
Full
Jun 29
Last Quarter
Jul 8
New
Jul 15
First Quarter
Jul 22
Full

Hourly Weather History & Observations

Time (PDT) Temp. Dew Point Humidity Pressure Visibility Wind Dir Wind Speed Gust Speed Precip Events Conditions
12:48 AM 68.0 °F 32.0 °F 26% 29.82 in 10.0 mi NW 19.6 mph 33.4 mph N/A   Clear
1:48 AM 66.9 °F 33.1 °F 28% 29.81 in 10.0 mi NNW 21.9 mph 32.2 mph N/A   Clear
2:48 AM 66.0 °F 35.1 °F 32% 29.80 in 10.0 mi NNW 21.9 mph 32.2 mph N/A   Clear
3:48 AM 64.0 °F 36.0 °F 35% 29.80 in 10.0 mi NNW 16.1 mph 27.6 mph N/A   Clear
4:48 AM - - N/A% - - North - - N/A   Unknown
5:48 AM 63.0 °F 35.1 °F 35% 29.80 in 10.0 mi NNW 15.0 mph - N/A   Clear
6:48 AM 64.9 °F 30.9 °F 28% 29.80 in 10.0 mi NNW 15.0 mph 20.7 mph N/A   Clear
7:48 AM 66.0 °F 28.9 °F 25% 29.81 in 10.0 mi North 6.9 mph - N/A   Clear
8:48 AM 68.0 °F 28.0 °F 22% 29.81 in 10.0 mi North 15.0 mph 20.7 mph N/A   Clear
9:48 AM 72.0 °F 30.0 °F 21% 29.80 in 10.0 mi North 10.4 mph 19.6 mph N/A   Clear
10:48 AM 73.0 °F 30.9 °F 21% 29.80 in 10.0 mi North 17.3 mph 23.0 mph N/A   Clear
11:48 AM - - N/A% - - North - - N/A   Unknown
12:48 PM 75.0 °F 33.1 °F 22% 29.81 in 10.0 mi NNW 16.1 mph 25.3 mph N/A   Clear
1:48 PM 73.9 °F 37.0 °F 26% 29.80 in 10.0 mi NW 17.3 mph 24.2 mph N/A   Clear
2:48 PM 75.0 °F 39.0 °F 27% 29.79 in 10.0 mi NNW 17.3 mph 23.0 mph N/A   Clear
3:48 PM 73.0 °F 39.9 °F 30% 29.79 in 10.0 mi NNW 15.0 mph 24.2 mph N/A   Clear
4:48 PM 71.1 °F 42.1 °F 35% 29.78 in 10.0 mi NW 8.1 mph - N/A   Clear
5:48 PM 71.1 °F 43.0 °F 36% 29.77 in 10.0 mi NW 18.4 mph 24.2 mph N/A   Clear
6:48 PM 69.1 °F 45.0 °F 42% 29.77 in 10.0 mi NNW 18.4 mph 25.3 mph N/A   Clear
7:48 PM 64.9 °F 44.1 °F 47% 29.78 in 10.0 mi NNW 19.6 mph 26.5 mph N/A   Clear
8:48 PM 63.0 °F 43.0 °F 48% 29.79 in 10.0 mi NNW 20.7 mph 32.2 mph N/A   Clear
9:48 PM 63.0 °F 42.1 °F 46% 29.78 in 10.0 mi NW 21.9 mph 31.1 mph N/A   Clear
10:48 PM 62.1 °F 45.0 °F 53% 29.78 in 10.0 mi NW 17.3 mph 31.1 mph N/A   Clear
11:48 PM 61.0 °F 42.1 °F 50% 29.77 in 10.0 mi NW 19.6 mph 28.8 mph N/A   Clear